Location: Bright Sky Observatory
(40.7821°N, 74.2425°W)
Time: 11:24:56
(UTC-04:00)

Daily predictions for brighter satellites

Satellite Brightness Start Highest point End
(mag) Time Altitude Azimuth Time Altitude Azimuth Time Altitude Azimuth
Ariane Rocket 3.3 18:22:40 10° S 18:27:45 78° WSW 18:32:53 10° NNW
Cosmos 2151 2.9 18:25:42 10° N 18:29:59 76° E 18:34:12 10° SSE
Cosmos 2322 3.8 18:26:28 10° NNW 18:32:14 88° ENE 18:37:56 10° SSE
BREEZE M DEB (TANK) 3.9 18:28:29 10° WNW 18:34:10 28° N 18:36:45 10° ENE
METEOR-M 4.4 18:29:58 10° SE 18:35:01 45° ENE 18:40:05 10° N
Cosmos 2219 Rocket 2.9 18:30:26 10° N 18:35:29 33° ENE 18:40:31 10° ESE
EO 1 Delta rocket 4.5 18:29:48 10° SSE 18:36:32 85° E 18:41:52 10° N
COSMO-SKYMED 1 3.1 18:32:53 10° NNE 18:36:58 38° E 18:41:01 10° SSE
EO 1 Del DPAF 3.6 18:33:33 10° NNE 18:37:16 44° E 18:40:57 10° S
Landsat 4 3.6 18:34:06 10° NNE 18:37:50 87° ESE 18:41:34 10° SSW
SMAP 3.4 18:34:06 10° S 18:38:44 73° WSW 18:43:24 10° NNW
CZ-4C R/B 2.2 18:37:01 10° SSW 18:42:03 62° ESE 18:47:48 10° NE
Cosmos 2366 rocket 4.4 18:36:00 10° SSW 18:42:09 68° W 18:48:18 10° N
CZ-4 R/B 1.7 18:41:27 10° S 18:45:38 74° WSW 18:49:46 10° NNW
MTI 3.7 18:42:40 10° NNE 18:45:53 79° E 18:49:04 10° S
Cosmos 1805 Rocket 4.2 18:41:57 10° N 18:45:59 34° ENE 18:50:01 10° SE
Meteor 1-28 Rocket 3.3 18:43:27 10° N 18:47:14 80° WNW 18:50:59 10° SSW
Abrixas rocket 3.8 18:46:24 10° NW 18:49:05 23° N 18:51:25 12° ENE
Aureole 2 Rocket 3.1 18:51:34 10° N 18:55:24 45° ENE 18:59:19 10° SE
Cosmos 1666 Rocket 4.4 18:51:48 10° NNE 18:55:31 27° ENE 18:59:13 10° SE
Cosmos 1269 Rocket 4.0 18:50:22 10° S 18:55:35 69° ESE 19:00:51 10° NNE
GRACE-2 3.5 18:53:24 10° S 18:55:57 81° E 18:58:31 10° N
YAOGAN 1 2.7 18:52:54 10° S 18:57:13 81° WSW 19:01:34 10° NNW
Cosmos 1626 4.2 18:53:59 10° NNW 18:57:21 32° W 19:00:41 10° SSW
Cosmos 1633 Rocket 4.0 18:55:36 10° NNE 18:59:18 26° ENE 19:02:59 10° SE
Iridium 4 Rocket 3.8 18:53:57 10° SSE 18:59:29 58° E 19:05:17 10° N
Cosmos 1315 Rocket 3.3 18:56:38 10° NNW 19:00:43 67° W 19:04:48 10° S
BREEZE-M DEB (TANK) 1.4 18:58:40 10° WSW 19:00:44 56° NNW 19:02:13 17° NE
GRACE-1 3.9 19:00:03 10° S 19:02:36 70° W 19:05:11 10° N
Cosmos 44 Rocket 3.8 19:03:12 10° SW 19:07:49 57° NW 19:12:27 10° NNE
Cosmos 2333 4.3 19:02:30 10° NNW 19:08:16 89° WSW 19:14:02 10° SSE
Cosmos 2084 3.4 19:07:16 10° NNW 19:10:59 49° NE 19:13:41 17° ESE
Cosmos 1908 4.1 19:07:46 10° SSW 19:11:35 52° W 19:15:25 10° N
SPOT 3 Rocket 3.5 19:06:28 10° SSE 19:11:40 81° ENE 19:16:54 10° NNW
Cosmos 2221 2.9 19:09:30 10° SSW 19:13:49 68° W 19:18:10 10° N
PSLV R/B 3.5 19:10:47 10° WSW 19:13:49 49° SSE 19:15:01 29° ESE
Cosmos 1934 Rocket 4.1 19:07:45 10° SSE 19:13:54 54° E 19:20:04 10° NNE
Cosmos 2237 Rocket 2.7 19:09:02 10° N 19:14:19 37° ENE 19:18:22 16° ESE
Cosmos 1000 Rocket 4.4 19:09:11 10° N 19:15:26 81° E 19:21:35 10° S
Cosmos 1821 Rocket 3.9 19:11:19 10° S 19:17:29 76° E 19:23:45 10° N
SJ-6B 4.1 19:20:59 21° NE 19:20:59 21° NE 19:23:05 10° NNE
Cosmos 1110 Rocket 4.2 19:15:27 10° N 19:20:39 51° ENE 19:25:45 10° SE
Cosmos 2227 Rocket 2.6 19:15:50 10° S 19:21:03 40° ESE 19:26:10 11° NE
H-2A R/B 3.4 19:20:16 24° ESE 19:21:45 33° ENE 19:25:18 10° N
Cosmos 2239 Rocket 4.4 19:16:08 10° S 19:22:16 83° E 19:28:27 10° N
SKYMED 2 4.1 19:20:47 10° N 19:25:05 60° WNW 19:29:20 10° SSW
Cosmos 2098 Rocket 3.7 19:22:18 10° S 19:27:05 81° W 19:33:14 10° N
SL-16 R/B 3.4 19:23:17 10° N 19:27:35 22° NE 19:28:01 21° ENE
Cosmos 1300 2.5 19:29:06 10° S 19:32:54 81° E 19:36:45 10° N
Gbstr 26 Del rocket 4.0 19:33:46 10° WNW 19:38:47 64° SW 19:43:47 16° SE
Cosmos 1980 3.7 19:33:32 10° NNW 19:39:09 62° ENE 19:43:00 20° SE
ALOS 2.4 19:34:45 10° S 19:39:24 74° WSW 19:44:06 10° NNW
FENGYUN 3A 3.8 19:36:22 10° S 19:41:46 78° WSW 19:47:13 10° NNW
Meteor 2-10 3.9 19:39:01 10° S 19:44:03 87° W 19:49:14 10° N
Envisat 4.5 19:47:50 21° NE 19:47:50 21° NE 19:50:08 10° NNE
SWAS 4.3 19:44:25 10° SSW 19:48:41 89° NW 19:50:51 29° NNE
Cosmos 2123 Rocket 3.9 19:43:01 10° N 19:49:19 85° E 19:55:36 10° S
Cosmos 2251 Rocket 3.5 19:45:13 10° S 19:50:25 62° ESE 19:54:10 19° NNE
COSMOS 2428 4.2 19:45:56 10° NW 19:51:07 37° WSW 19:56:17 10° S
Cosmos 1605 Rocket 3.8 19:46:00 10° S 19:52:04 73° E 19:58:09 10° NNE
Meteor 2-3 Rocket 4.0 19:47:01 10° N 19:52:33 45° ENE 19:53:21 43° E
Cosmos 2219 4.4 19:48:02 10° SW 19:53:26 41° WNW 19:58:52 10° N
Cosmos 2333 Rocket 2.5 19:48:20 10° NNW 19:54:03 70° WSW 19:59:47 10° SSE
Cosmos 1470 Rocket 4.1 19:49:49 10° N 19:53:14 42° NE 19:53:14 42° NE
NOSS 0 Rocket 4.0 19:50:06 10° NNW 19:56:17 78° WSW 20:02:24 10° SSE
Cosmos 2297 Rocket 2.1 19:52:24 10° SSW 19:57:59 68° ESE 20:00:57 29° NE
Cosmos 1726 4.2 19:55:13 10° SW 19:58:25 27° WNW 20:01:38 10° NNW
Cosmos 1153 Rocket 4.5 19:52:55 10° SSE 19:58:51 55° E 20:04:54 10° NNE
Hubble Space Telescope 3.0 19:58:33 10° SSW 20:00:30 14° S 20:00:30 14° S
USA 267 4.0 20:04:43 32° SE 20:04:43 32° SE 20:09:44 10° S
Sich 1 4.1 20:01:11 10° NNW 20:05:23 46° W 20:09:36 10° SSW
Meteor 2-17 Rocket 4.4 20:01:44 10° S 20:07:39 59° E 20:13:38 10° NNE
Cosmos 2082 3.6 20:03:43 10° SSW 20:09:26 82° ESE 20:12:12 32° NNE
Thor Agena Rocket 3.9 20:06:19 10° N 20:11:21 63° WNW 20:16:19 10° SSW
Cosmos 1331 Rocket 4.4 20:07:55 10° NNW 20:13:04 61° WSW 20:16:38 19° S
Resurs 01 Rocket 3.7 20:21:17 17° N 20:21:17 17° N 20:22:19 10° N
Cosmos 2219 Rocket 3.7 20:14:22 10° NW 20:19:24 35° WSW 20:24:25 10° SSW
Cosmos 1447 Rocket 4.4 20:20:08 10° N 20:26:29 90° NE 20:29:04 39° S
BREEZE-M DEB (TANK) 3.4 20:23:32 10° WNW 20:29:58 50° NNW 20:29:58 50° NNW
CZ-4C R/B 4.1 20:26:39 10° W 20:31:06 25° NW 20:35:48 11° NNE
Cosmos 2228 Rocket 3.9 20:29:34 10° SSW 20:33:58 50° W 20:38:27 10° N
USA 234 4.4 20:39:19 28° NNE 20:39:29 28° NNE 20:44:50 10° NW
Cosmos 1302 Rocket 4.5 20:38:06 10° NNW 20:42:54 57° W 20:42:54 57° W
Cosmos 2237 Rocket 3.7 20:53:16 10° NW 20:58:14 32° WSW 21:00:17 25° SW
Cosmos 2227 Rocket 3.9 21:00:14 10° WSW 21:05:10 30° WNW 21:08:05 20° N
SL-16 R/B 3.5 21:06:32 10° NNW 21:09:55 36° NW 21:09:55 36° NW
Cosmos 2297 Rocket 4.5 21:38:33 10° W 21:42:34 20° NW 21:42:52 19° NW
